Weather History for Gunnison, CO

Change the Weather History Date:

Saturday, March 30, 2013

  Actual Average Record
Temperature  
Mean Temperature 40 °F -  
Max Temperature 57 °F 47 °F 62 °F (2012)
Min Temperature 24 °F 20 °F 15 °F (1997)
Degree Days  
Heating Degree Days 24    
Moisture  
Dew Point 22 °F    
Average Humidity 51    
Maximum Humidity 86    
Minimum Humidity 21    
Precipitation  
Precipitation 0.00 in - - ()
Sea Level Pressure  
Sea Level Pressure 30.26 in    
Wind  
Wind Speed 4 mph (West)    
Max Wind Speed 18 mph    
Max Gust Speed 25 mph    
Visibility 10 miles    
Events      
Averages and records for this station are not official NWS values.
T = Trace of Precipitation, MM = Missing Value Source: NWS Daily Summary

Daily Weather History Graph

Daily Weather History Graph

Search for Another Location

Airport:

Trip Planner

Search our weather history database for the weather conditions in past years. The results will help you decide how hot, cold, wet, or windy it might be!

Date:

Astronomy

Mar. 30, 2013 Rise Set
Actual Time 6:55 AM MDT 7:29 PM MDT
Civil Twilight 6:28 AM MDT 7:56 PM MDT
Nautical Twilight 5:57 AM MDT 8:27 PM MDT
Astronomical Twilight 5:24 AM MDT 9:00 PM MDT
Moon 11:36 PM MDT (3/30) 8:55 AM MDT (3/30)
Length of Visible Light 13h 27m
Length of Day
12h 34m
Waning Gibbous, 86% of the Moon is Illuminated
Mar 30
Waning Gibbous
Apr 2
Last Quarter
Apr 10
New
Apr 18
First Quarter
Apr 25
Full

Hourly Weather History & Observations

Time (MDT) Temp. Windchill Dew Point Humidity Pressure Visibility Wind Dir Wind Speed Gust Speed Precip Events Conditions
12:15 AM 33.8 °F 29.6 °F 23.0 °F 65% 30.31 in 10.0 mi SE 4.6 mph - N/A   Mostly Cloudy
12:35 AM 33.8 °F 29.6 °F 26.6 °F 75% 30.31 in 10.0 mi West 4.6 mph - N/A   Mostly Cloudy
12:55 AM 33.8 °F - 24.8 °F 70% 30.31 in 10.0 mi Calm Calm - N/A   Mostly Cloudy
1:15 AM 33.8 °F - 23.0 °F 65% 30.31 in 10.0 mi Calm Calm - N/A   Overcast
1:35 AM 33.8 °F 28.6 °F 24.8 °F 70% 30.31 in 10.0 mi North 5.8 mph - N/A   Scattered Clouds
1:55 AM 32.0 °F - 24.8 °F 75% 30.31 in 10.0 mi Calm Calm - N/A   Clear
2:15 AM 30.2 °F - 23.0 °F 75% 30.31 in 10.0 mi Calm Calm - N/A   Clear
2:35 AM 28.4 °F - 21.2 °F 74% 30.31 in 10.0 mi Calm Calm - N/A   Clear
2:55 AM 30.2 °F - 21.2 °F 69% 30.31 in 10.0 mi Calm Calm - N/A   Clear
3:15 AM 28.4 °F - 23.0 °F 80% 30.31 in 10.0 mi Calm Calm - N/A   Clear
3:35 AM 28.4 °F - 24.8 °F 86% 30.30 in 10.0 mi Calm Calm - N/A   Clear
3:55 AM 30.2 °F - 23.0 °F 75% 30.30 in 10.0 mi Calm Calm - N/A   Clear
4:15 AM 28.4 °F - 21.2 °F 74% 30.30 in 10.0 mi Calm Calm - N/A   Clear
4:35 AM 28.4 °F - 23.0 °F 80% 30.30 in 10.0 mi Calm Calm - N/A   Clear
4:55 AM 28.4 °F - 21.2 °F 74% 30.30 in 10.0 mi Calm Calm - N/A   Clear
5:15 AM 26.6 °F - 19.4 °F 74% 30.30 in 10.0 mi Calm Calm - N/A   Clear
5:35 AM 24.8 °F - 19.4 °F 80% 30.30 in 10.0 mi Calm Calm - N/A   Clear
5:55 AM 26.6 °F - 21.2 °F 80% 30.30 in 10.0 mi Calm Calm - N/A   Clear
6:15 AM 26.6 °F - 21.2 °F 80% 30.30 in 10.0 mi Calm Calm - N/A   Clear
6:35 AM 26.6 °F 22.6 °F 21.2 °F 80% 30.31 in 10.0 mi NE 3.5 mph - N/A   Clear
6:55 AM 26.6 °F - 21.2 °F 80% 30.31 in 10.0 mi Calm Calm - N/A   Clear
7:15 AM 24.8 °F - 19.4 °F 80% 30.32 in 10.0 mi Calm Calm - N/A   Partly Cloudy
7:35 AM 24.8 °F - 21.2 °F 86% 30.33 in 10.0 mi Calm Calm - N/A   Partly Cloudy
7:55 AM 26.6 °F - 23.0 °F 86% 30.32 in 10.0 mi Calm Calm - N/A   Clear
8:15 AM 30.2 °F - 21.2 °F 69% 30.32 in 10.0 mi Calm Calm - N/A   Clear
8:35 AM 30.2 °F - 24.8 °F 80% 30.32 in 10.0 mi Calm Calm - N/A   Clear
9:15 AM 33.8 °F - 26.6 °F 75% 30.31 in 10.0 mi Calm Calm - N/A   Clear
9:35 AM 35.6 °F - 24.8 °F 65% 30.31 in 10.0 mi Calm Calm - N/A   Clear
9:55 AM 37.4 °F - 26.6 °F 65% 30.30 in 10.0 mi Calm Calm - N/A   Clear
10:15 AM 39.2 °F - 26.6 °F 61% 30.30 in 10.0 mi Calm Calm - N/A   Partly Cloudy
10:35 AM 41.0 °F 39.0 °F 24.8 °F 53% 30.29 in 10.0 mi East 3.5 mph - N/A   Partly Cloudy
10:55 AM 42.8 °F 41.1 °F 24.8 °F 49% 30.28 in 10.0 mi ENE 3.5 mph - N/A   Partly Cloudy
11:15 AM 44.6 °F 43.1 °F 26.6 °F 49% 30.28 in 10.0 mi NW 3.5 mph - N/A   Mostly Cloudy
11:35 AM 46.4 °F 43.5 °F 24.8 °F 43% 30.27 in 10.0 mi NW 5.8 mph - N/A   Mostly Cloudy
11:55 AM 48.2 °F - 24.8 °F 40% 30.27 in 10.0 mi NW 5.8 mph - N/A   Mostly Cloudy
12:15 PM 51.8 °F - 26.6 °F 38% 30.25 in 10.0 mi NW 5.8 mph - N/A   Mostly Cloudy
12:35 PM 53.6 °F - 24.8 °F 33% 30.24 in 10.0 mi WSW 15.0 mph 21.9 mph N/A   Overcast
12:55 PM 53.6 °F - 21.2 °F 28% 30.23 in 10.0 mi West 18.4 mph 24.2 mph N/A   Overcast
1:15 PM 53.6 °F - 17.6 °F 24% 30.23 in 10.0 mi WNW 10.4 mph 23.0 mph N/A   Mostly Cloudy
1:35 PM 53.6 °F - 17.6 °F 24% 30.22 in 10.0 mi WNW 12.7 mph 24.2 mph N/A   Mostly Cloudy
1:55 PM 53.6 °F - 17.6 °F 24% 30.22 in 10.0 mi West 12.7 mph 21.9 mph N/A   Overcast
2:15 PM 55.4 °F - 19.4 °F 25% 30.21 in 10.0 mi West 18.4 mph 25.3 mph N/A   Overcast
2:35 PM 55.4 °F - 17.6 °F 23% 30.21 in 10.0 mi WSW 16.1 mph 24.2 mph N/A   Overcast
2:55 PM 55.4 °F - 17.6 °F 23% 30.20 in 10.0 mi WSW 16.1 mph 20.7 mph N/A   Mostly Cloudy
3:15 PM 53.6 °F - 15.8 °F 22% 30.20 in 10.0 mi WNW 13.8 mph 23.0 mph N/A   Mostly Cloudy
3:35 PM 55.4 °F - 15.8 °F 21% 30.19 in 10.0 mi West 13.8 mph 20.7 mph N/A   Mostly Cloudy
3:55 PM 57.2 °F - 19.4 °F 23% 30.18 in 10.0 mi SW 16.1 mph 24.2 mph N/A   Mostly Cloudy
4:15 PM 55.4 °F - 17.6 °F 23% 30.18 in 10.0 mi SW 17.3 mph 23.0 mph N/A   Mostly Cloudy
4:35 PM 55.4 °F - 19.4 °F 25% 30.18 in 10.0 mi WSW 13.8 mph 25.3 mph N/A   Mostly Cloudy
4:55 PM 53.6 °F - 19.4 °F 26% 30.17 in 10.0 mi SW 15.0 mph 25.3 mph N/A   Mostly Cloudy
5:15 PM 53.6 °F - 15.8 °F 22% 30.18 in 10.0 mi WSW 13.8 mph 23.0 mph N/A   Scattered Clouds
5:35 PM 55.4 °F - 19.4 °F 25% 30.17 in 10.0 mi West 18.4 mph 21.9 mph N/A   Scattered Clouds
5:55 PM 53.6 °F - 15.8 °F 22% 30.17 in 10.0 mi West 12.7 mph - N/A   Partly Cloudy
6:15 PM 55.4 °F - 15.8 °F 21% 30.18 in 10.0 mi West 11.5 mph - N/A   Partly Cloudy
6:35 PM 53.6 °F - 17.6 °F 24% 30.18 in 10.0 mi WNW 4.6 mph - N/A   Mostly Cloudy
6:55 PM 51.8 °F - 19.4 °F 28% 30.18 in 10.0 mi WNW 9.2 mph - N/A   Overcast
7:15 PM 50.0 °F - 19.4 °F 30% 30.19 in 10.0 mi NNW 9.2 mph 16.1 mph N/A   Mostly Cloudy
7:35 PM 48.2 °F - 19.4 °F 32% 30.19 in 10.0 mi NNW 9.2 mph - N/A   Mostly Cloudy
7:55 PM 46.4 °F 41.9 °F 19.4 °F 34% 30.20 in 10.0 mi NNW 9.2 mph - N/A   Overcast
8:15 PM 46.4 °F 41.5 °F 19.4 °F 34% 30.20 in 10.0 mi NW 10.4 mph 17.3 mph N/A   Overcast
8:35 PM 46.4 °F 42.9 °F 21.2 °F 37% 30.22 in 10.0 mi NNW 6.9 mph - N/A   Overcast
8:55 PM 46.4 °F 42.9 °F 19.4 °F 34% 30.22 in 10.0 mi West 6.9 mph - N/A   Overcast
9:15 PM 46.4 °F 43.5 °F 21.2 °F 37% 30.23 in 10.0 mi SW 5.8 mph - N/A   Overcast
9:35 PM 46.4 °F 45.2 °F 21.2 °F 37% 30.24 in 10.0 mi NW 3.5 mph - N/A   Overcast
9:55 PM 44.6 °F 40.7 °F 23.0 °F 43% 30.25 in 10.0 mi West 6.9 mph - N/A   Overcast
10:15 PM 44.6 °F - 23.0 °F 43% 30.26 in 10.0 mi Calm Calm - N/A   Overcast
10:35 PM 44.6 °F 43.1 °F 23.0 °F 43% 30.26 in 10.0 mi SW 3.5 mph - N/A   Overcast
10:55 PM 44.6 °F 40.7 °F 24.8 °F 46% 30.26 in 10.0 mi WSW 6.9 mph - N/A   Overcast
11:15 PM 42.8 °F 39.3 °F 24.8 °F 49% 30.26 in 10.0 mi SW 5.8 mph - N/A   Mostly Cloudy
11:35 PM 42.8 °F 38.0 °F 24.8 °F 49% 30.25 in 10.0 mi WSW 8.1 mph - N/A   Partly Cloudy
11:55 PM 41.0 °F - 24.8 °F 53% 30.26 in 10.0 mi Calm Calm - N/A   Clear